Location: Montreal
(45.5000°N, 73.5833°W)
Time: 09:38:59
(UTC-05:00)

Vanguard 2 Rocket - Visible Passes

Search period start: 13 December 2017 00:00
Search period end: 23 December 2017 00:00
Orbit: 555 x 3326 km, 32.9° (Epoch: 13 December)

Date Brightness Start Highest point End Pass type
(mag) Time Alt. Az. Time Alt. Az. Time Alt. Az.
13 Dec 9.8 17:34:45 10° S 17:43:36 25° SE 17:53:14 15° E visible
13 Dec 9.4 19:44:41 10° SW 19:57:30 48° SSE 19:59:02 47° SSE visible
13 Dec 10.1 21:57:53 10° WSW 22:04:50 33° WSW 22:04:50 33° WSW visible
14 Dec11.100:51:18SE00:51:18SE00:10:38Wvisible
14 Dec 10.0 16:38:12 10° SSE 16:44:17 16° SE 16:52:01 10° E visible
14 Dec 9.5 18:45:55 10° SW 18:56:58 41° SSE 19:02:49 33° ESE visible
14 Dec 9.6 20:58:02 10° WSW 21:08:37 48° SSW 21:08:37 48° SSW visible
14 Dec 10.7 23:12:35 10° W 23:14:25 15° W 23:14:25 15° W visible
15 Dec 9.6 17:47:43 10° SSW 17:56:58 32° SE 18:06:34 18° E visible
15 Dec 9.4 19:58:39 10° WSW 20:11:22 51° S 20:12:23 51° SSE visible
15 Dec 10.2 22:12:12 10° W 22:18:11 29° WSW 22:18:11 29° WSW visible
16 Dec 9.7 16:50:14 10° S 16:57:29 23° SE 17:07:44 10° E visible
16 Dec 9.3 18:59:43 10° SW 19:10:43 46° SSE 19:16:08 37° ESE visible
16 Dec 9.6 21:12:18 10° WSW 21:21:56 45° SW 21:21:56 45° SW visible
16 Dec 10.8 23:27:09 10° W 23:27:44 11° W 23:27:44 11° W visible
17 Dec 9.4 18:01:14 10° SW 18:10:34 38° SSE 18:19:54 21° ESE visible
17 Dec 9.3 20:12:50 10° WSW 20:25:21 52° S 20:25:42 52° S visible
17 Dec 10.3 22:26:40 10° W 22:31:30 25° WSW 22:31:30 25° WSW visible
18 Dec 9.5 17:03:15 10° SSW 17:10:56 29° SE 17:22:36 10° E visible
18 Dec 9.3 19:13:46 10° WSW 19:24:39 49° S 19:29:29 40° SE visible
18 Dec 9.7 21:26:41 10° W 21:35:17 40° SW 21:35:17 40° SW visible
19 Dec 9.2 18:15:06 10° SW 18:24:23 43° SSE 18:33:16 24° ESE visible
19 Dec 9.4 20:27:09 10° WSW 20:39:04 50° S 20:39:04 50° S visible
19 Dec 10.4 22:41:20 10° W 22:44:53 20° WSW 22:44:53 20° WSW visible
20 Dec 9.3 17:16:49 10° SW 17:24:36 35° SSE 17:37:04 10° E visible
20 Dec 9.2 19:28:00 10° WSW 19:38:41 49° S 19:42:53 42° SE visible
20 Dec 9.9 21:41:14 10° W 21:48:42 34° SW 21:48:42 34° SW visible
21 Dec 9.1 18:29:12 10° WSW 18:38:22 45° S 18:46:44 26° ESE visible
21 Dec 9.5 20:41:37 10° WSW 20:52:33 45° SSW 20:52:33 45° SSW visible
21 Dec 10.6 22:56:22 10° W 22:58:21 15° WSW 22:58:21 15° WSW visible
22 Dec 9.1 17:30:45 10° SW 17:38:30 39° SSE 17:50:38 11° ESE visible
22 Dec 9.3 19:42:24 10° WSW 19:52:48 47° S 19:56:26 41° SSE visible
22 Dec 10.1 21:56:01 10° W 22:02:15 27° WSW 22:02:15 27° WSW visible
